Location: Cambridge (historical)
(38.6883°N, 119.0140°W)
Time: 17:00:17
(UTC+00:00)

Cosmos 1190 Rocket - Pass Details

Date: 29 October 2020
Orbit: 757 x 779 km, 74.1° (Epoch: 22 November)

Event Time Altitude Azimuth Distance (km) Brightness Sun altitude
Rises 13:47:04 0° 211° (SSW) 3,226 7.0 -7.1°
Reaches altitude 10° 13:49:30 10° 217° (SW) 2,300 6.2 -6.7°
Maximum altitude 13:54:34 50° 292° (WNW) 970 4.2 -5.7°
Drops below altitude 10° 13:59:38 10° 8° (N) 2,301 6.4 -4.7°
Sets 14:02:05 0° 14° (NNE) 3,228 7.2 -4.3°
